2022 Boston Marathon

back to results

Apr. 18, 2022

2022 Boston Marathon
Boston, MA
Provided by Boston Athletic Association


BibNumber FullName AGE M/F City OfficialTi RankOverall
118 Monicah Ngige 28 F Lansing 2:22:13 37
504 Steven Lawrence 44 M West Bloomfield Township 2:27:20 71
338 Matt Mcsween 31 M Grand Rapids 2:27:21 72
108 Desiree Linden 38 F Charlevoix 2:28:47 103
1010 Neal Naughton 36 M Ann Arbor 2:34:58 253
574 Tim Moore 38 M Ann Arbor 2:37:55 361
1526 Eric Berg 19 M Shelby Twp 2:38:28 395
734 Lance Pride 36 M Kalamazoo 2:39:48 478
647 Casey Routledge 28 M Grand Rapids 2:41:05 553
1506 Elizabeth Bigelow 36 F Mount Pleasant 2:42:36 638
1296 Justin Zanotti 38 M Chesterfield 2:42:46 651
1163 Brad Schmidt 38 M Kalamazoo 2:43:01 672
733 Samuel Darling 44 M Muskegon 2:44:58 833
661 Erik Wippler 46 M Canton 2:45:10 855
1635 Noah Krzan 36 M Kalamazoo 2:45:25 874
4588 Ryan Bigelow 36 M Mount Pleasant 2:45:33 890
1820 Hayato Shimizu 39 M Ann Arbor 2:45:59 917
2215 Zach Mesplay 23 M Southfield 2:46:40 983
3350 David Carnago 21 M Macomb 2:46:42 988
2246 Eric Nye 33 M Freeland 2:47:15 1041
3731 Kurt Kehren 18 M Oakland Township 2:48:05 1140
4775 Darren Sweet 31 M Wyoming 2:48:17 1165
1206 Zachary Baker 41 M Portage 2:48:21 1174
1484 Ryan Holtz 27 M Royal Oak 2:48:23 1178
1628 Charles Mancino 28 M Rochester 2:48:29 1192
1831 Jacob Schuurman 32 M Grand Rapids 2:49:03 1266
858 Logan Mays 23 M Ceresco 2:49:03 1271
1568 Marissa Martz 30 F Holland 2:49:35 1334
3222 Kiersten Waineo 29 F Plymouth 2:50:37 1465
2105 Robert Buckhannon 29 M Lansing 2:50:40 1472
5258 Kurt Brinker 42 M Saint Clair 2:50:52 1499
2872 Gordon Copee 37 M Ann Arbor 2:50:57 1518
1257 Tom Hall 43 M Kalamazoo 2:51:05 1533
1826 Kurt Ashack 33 M Grand Rapids 2:51:24 1578
2784 Thomas Matthews 37 M New Baltimore 2:51:41 1611
2680 Patrick Riley 43 M Temperance 2:51:45 1621
5901 Jason Richmond 40 M Redford 2:52:10 1688
1855 Jordan Slate 32 M Williamston 2:52:14 1696
2197 Scott Skelton 35 M Canton 2:52:14 1699
4961 Shawn Hallett 27 M Ann Arbor 2:52:14 1701
4752 Lorenzo Martinez 32 M Grand Rapids 2:52:18 1712
2849 Mark Walsh 52 M Macomb Twp 2:53:26 1868
4922 Brendan Mullan 27 M Detroit 2:53:35 1891
5470 Mead Goedert 38 M West Bloomfield 2:54:25 2056
3096 Bruce Langerak 50 M Byron Center 2:54:29 2068
4377 Travis Reid 37 M Shelby 2:54:29 2072
2274 Lance Woods 33 M Detroit 2:54:44 2110
2732 Timothy Maday 37 M Zeeland 2:54:49 2125
4643 William Schuette 26 M Midland 2:54:52 2133
1467 Aeneas Koosis 26 M Bloomfield Hills 2:55:06 2163
7147 Breanna Herring 27 F Plymouth 2:55:56 2294
3823 Tyler Brown 31 M Livonia 2:56:41 2449
6139 Tanner Rufenacht 27 M Grand Rapids 2:57:41 2681
5383 Matthew Bush 31 M East Grand Rapids 2:57:42 2683
2271 Bill Burns 54 M Lambertville 2:57:48 2704
8078 Sebastian Tochowicz 48 M Ira 2:58:04 2775
5835 Taylor Schutte 30 M Detroit 2:58:13 2807
4603 Matt Tarasenko 41 M Shelby Twp 2:58:32 2892
3333 Michael Bankes 24 M Pinckney 2:58:32 2895
9923 Allison Biskup 26 F Birming 2:58:43 2941
6566 Ernest Grooney 41 M Jenison 2:58:46 2957
2768 Jorge Ospina 49 M Ann Arbor 2:58:55 2998
6529 Eric Woelkers 45 M Flat Rock 2:59:02 3030
5534 Connor Stevens 31 M Traverse City 2:59:05 3039
6020 Xaver Tomaszewski 47 M Plymouth 2:59:22 3118
2758 Justin Rito 35 M Grand Rapids 2:59:46 3226
6099 Michael Driscoll 35 M Saline 3:00:06 3310
3754 Mikel Gurrea 37 M Canton 3:00:07 3312
3729 Brian Degiulio 34 M Ferndale 3:00:18 3342
3760 Russell Lahti 42 M East Lansing 3:00:26 3365
3965 Megan Sanchez 35 F Ada 3:00:46 3428
6525 Anna Piccione 24 F Detroit 3:00:47 3429
8782 Eric Blackwell 50 M Kalamazoo 3:00:52 3439
5484 Kyle Lake 36 M Holland 3:00:57 3454
5959 Michael Garrett 54 M Rochester 3:01:01 3467
3650 Mitch Vermet 28 M Grosse Pointe Woods 3:01:14 3512
4458 Mark Mclaughlin 34 M Ann Arbor 3:01:16 3520
5616 Collin Hall 35 M Farmington 3:01:17 3522
6345 Mitchell Gerhardt 22 M Royal Oak 3:01:29 3555
1550 Brian Lishawa 45 M Traverse City 3:01:31 3567
2760 Stephen Hagerman 36 M Detroit 3:01:48 3614
7383 Thomas Maclean 41 M Ann Arbor 3:02:03 3657
2690 Jordan Chester 29 F Grand Rapids 3:02:26 3728
5818 Joel Dalton 54 M Ann Arbor 3:02:29 3740
7211 Eric Ashack 37 M Byron Center 3:02:43 3782
3604 Nicholas Rochefort 38 M Bad Axe 3:02:44 3785
4410 James Badgerow 44 M Omer 3:03:03 3854
3352 Mark Magyar 42 M Grand Rapids 3:03:13 3877
3734 Shawn Achtman 34 M Berkley 3:03:55 4004
5686 Paul Livingstone 48 M Ann Arbor 3:04:30 4108
5228 Ryan Rockafellow 35 M Rockford 3:05:00 4194
6454 Daniel Damaska 47 M Portage 3:05:03 4204
5375 Lisa Veneziano 57 F Fenton 3:05:04 4206
5887 Hisashi Kikuchi 43 M Novi 3:05:09 4225
10588 Gretchen Mills 29 F Clawson 3:05:16 4241
9018 Maggie Rettelle 49 F Midland 3:05:40 4324
4177 Rich Power 58 M Rochester 3:06:04 4402
4107 Lewis Hoffman 39 M Lansing 3:06:06 4410
11886 Barbara Powers 33 F Lansing 3:06:43 4536
7097 Andrew Buikema 42 M Rockford 3:06:48 4550
5973 Peter Kroon 36 M Midland 3:06:53 4566
8099 Doug Moore 43 M Pinckney 3:06:58 4584
2475 Eisuke Narita 40 M Walled Lake 3:07:00 4592
6868 Matthew Shell 38 M Lake Orion 3:07:01 4596
5532 Charles Jiang 24 M Southfield 3:07:16 4639
9626 Gongtae Gil 52 M Grand Rapids 3:07:30 4686
12577 Carla Snell 44 F Waterford 3:07:36 4707
11199 Yanbin Liu 50 M Northville 3:07:39 4714
9310 Alex Beired 52 M Birmingham 3:07:48 4753
4914 Eric Krebs 25 M Royal Oak 3:08:12 4839
3885 Simon Baldwin 35 M Lansing 3:08:26 4882
10595 Rosa Haag 43 F Kalamazoo 3:08:37 4920
3261 Spencer Waldmann 23 M Midland 3:08:43 4952
3758 Nicholas Bailey 38 M Muskegon 3:08:52 4978
10227 Michihiro Tomotsugu 47 M West Bloomfield 3:09:11 5054
5166 Kyle Mills 34 M Clawson 3:09:24 5116
6867 Salomon Castillo Av 43 M Kalamazoo 3:09:31 5142
3167 Jacob Boone 32 M Spring Arbor 3:09:36 5154
7166 Kyle Carver 38 M Ann Arbor 3:10:10 5289
4882 Peng Zhang 42 M Ann Arbor 3:10:13 5294
12450 Allison Snyder 26 F Albion 3:10:17 5308
14262 Jaime Gomez Espinos 57 M Livonia 3:10:19 5315
7300 Aaron Griffith 42 M Grand Rapids 3:10:22 5327
2420 Owen Kalsbeek 19 M Grand Rapids 3:10:28 5350
921 Brendan Delaney 21 M Gaylord 3:10:44 5402
8955 Curtiss Haskins 40 M Bloomfield Hills 3:11:12 5497
8124 Michael Nelson 53 M Grand Rapids 3:11:25 5555
6271 Alex Clink 32 M Grand Rapids 3:12:14 5738
12668 Josondra Notter 36 F Franklin 3:12:22 5773
5138 Joshua Swett 30 M East Grand Rapids 3:12:47 5854
5129 Joshua Spicer-Swett 29 M East Grand Rapids 3:12:48 5857
12876 Michelle Brinker 36 F Saint Clair 3:12:48 5859
8675 Bruce Mayrand 43 M Howell 3:12:50 5867
3803 Craig Hoogerwerf 37 M Ada 3:12:51 5873
7043 Michael Young 65 M Orchard Lake 3:12:51 5876
10812 Caen Thomason-Redus 47 M Grosse Pointe Park 3:12:53 5883
10186 Ken Mclaughlin 57 M Whitmore Lake 3:13:06 5933
5908 Michael Wilson 39 M Lambertville 3:13:39 6063
9420 Jesse Sweeney 47 M Southfield 3:13:43 6077
3266 Patrick Foley 39 M Royal Oak 3:14:09 6173
8858 Ryan Gillmore 46 M Holland 3:14:34 6273
2896 Derek Groom 32 M Ann Arbor 3:14:37 6290
12584 Breanna Kooiman 25 F Grand Rapids 3:14:43 6314
14024 Megan Davis 30 F New Boston 3:14:53 6365
15331 Bridget Smith 60 F Ann Arbor 3:14:57 6391
7325 Lars Wasvick 43 M Grand Rapids 3:15:27 6516
7158 Drew Slagter 36 M Hudsonville 3:15:27 6518
12029 Christopher Gray 54 M Dewitt 3:15:53 6623
2415 Rob Devroy 30 M Grandville 3:16:10 6696
10462 Arni Chambers 48 M Detroit 3:16:22 6747
5543 Jacob Roersma 38 M Ada 3:16:41 6828
6358 Bret Clark 38 M Kalamazoo 3:16:47 6857
13625 Anna Zblewski 31 F Kalamazoo 3:16:48 6860
6242 Jeffrey Fedewa 36 M Eagle 3:16:50 6868
11686 Daniel Aupperlee 45 M Grand Rapids 3:17:06 6936
5500 Ed Kenny 48 M Kalamazoo 3:17:07 6944
8702 Steven Tuit 50 M Grand Rapids 3:17:08 6954
10746 Owen Goslin 46 M Cheboygan 3:17:12 6969
8224 Gabriella Ring 28 F Ann Arbor 3:17:17 6997
14087 Rachel Evans 25 F Madison Heights 3:17:21 7013
8038 Lorance Dorow 37 M Newport 3:17:36 7083
10143 Rachela Lack 46 F St Clair Shores 3:17:40 7099
9693 Matthew Lewis 46 M Elkton 3:17:41 7108
15274 Rachel Gottlieb 29 F Ann Arbor 3:17:57 7176
10711 Brad Pauly 49 M Traverse City 3:18:10 7223
16186 Robert Louis-Ferdin 55 M West Bloomfield 3:18:11 7230
2019 Thomas Bailey 37 M Farmington Hills 3:18:35 7336
9419 Andrew Murray 47 M Bloomfield Hills 3:18:38 7350
10772 Habtamu Handro 52 M East Lansing 3:18:38 7351
9625 Brita Northey 40 F Houghton 3:19:01 7474
11627 Matthew Singleton 46 M Spring Arbor 3:19:16 7550
9271 Alissa Folger 36 F East Lansing 3:19:21 7570
8288 Amjad Nader 43 M Bay City 3:19:27 7597
12607 Erin Patterson 38 F Ann Arbor 3:19:35 7639
10678 Marikate Murphy 25 F Albion 3:19:37 7653
2874 Shelby Pankratz 52 M Zeeland 3:19:44 7678
12134 Timothy Nelson 52 M Omer 3:19:51 7709
4016 Michael Driesenga 37 M Ann Arbor 3:20:03 7760
12000 Rob Gibson 46 M Plymouth 3:20:08 7788
9015 Brandon Seaver 41 M Hudsonville 3:20:23 7842
12521 Kurt Etherington 45 M Brighton 3:20:23 7845
4076 Chris Rossow 48 M Fort Gratiot 3:20:28 7873
12538 Hannah Adams 30 F East Lansing 3:20:46 7945
13228 Bill Ogden 48 M Rochester Hills 3:20:50 7973
14315 Kelsey Cox 30 F Royal Oak 3:21:22 8114
8879 Ryan Collings 40 M Chesterfield 3:21:29 8141
16953 Carm Michaud 47 F Lake Odessa 3:22:04 8285
13137 Cristina Noble 47 F Brighton 3:22:07 8306
5358 John Robenalt 34 M Ann Arbor 3:22:17 8341
5382 Robert Blaszak 39 M Grand Rapids 3:22:18 8348
7530 Daniel Robertson 48 M Ann Arbor 3:22:19 8351
13072 Alana Rodriguez 37 F Ann Arbor 3:22:28 8381
12565 Reji Thomas 53 M Detroit 3:22:29 8385
16727 Courtney Mcintyre 30 F Wyoming 3:22:56 8502
7286 Will Clark 39 M Esssexville 3:23:21 8622
12549 Todd Mitchell 54 M St. Clair Shores 3:23:32 8658
12637 Pamela Mcwilliams 38 F Kalamazoo 3:23:36 8680
17459 Jessica Delcorvo 37 F Howell 3:23:42 8700
14884 Fangjun Jiang 52 M Northville 3:23:47 8725
10910 Scott Mclean 52 M Pinckney 3:23:54 8760
3197 Zachary Money 33 M Bloomfield Township 3:23:55 8764
12118 James Crites 48 M Hudsonville 3:23:59 8792
6640 William Van Kempen 35 M Holland 3:24:09 8839
11313 Gwendolyn Hoenke 26 F Marquette 3:24:21 8892
15422 Kelsey Adriance 30 F Kalamazoo 3:24:29 8927
14907 Nikki Liversedge 40 F Ada 3:24:37 8965
16792 Jeff Richardson 55 M Commerce 3:24:41 8980
7246 Thomas Mcgough 47 M Holland 3:24:49 9007
11565 Loren Oboikovitz 29 F Niles 3:24:49 9008
13366 Felicia Mondry 33 F Traverse City 3:24:57 9051
12043 Sierra Kane 32 F Kalamazoo 3:24:59 9057
24848 Nikolas Acosta 30 M Grand Rapids 3:25:15 9127
13982 Mindy Fernando 43 F Franklin 3:25:21 9147
18300 Zhaohui Xu 55 M Ann Arbor 3:25:31 9183
14325 Goro Tamai 51 M Bloomfield Hills 3:25:32 9184
9846 Brad Wright 51 M White Lake Charter Towns 3:25:34 9187
15291 Kimberly Miller 33 F Lansing 3:25:38 9214
1489 Griffin Rose 19 M Holly 3:25:42 9231
12868 Bin Xu 58 M Ann Arbor 3:25:43 9236
10505 Brian Goodman 46 M Brighton 3:25:45 9245
9879 Weiyang Xu 53 M Troy 3:25:47 9257
5801 Eric Spitz 30 M Lansing 3:25:49 9266
14540 Natalie Beaulieu 23 F Newberry 3:26:08 9355
17706 Sara Keough 45 F Saginaw 3:26:09 9362
7351 Michael Otoole 37 M Byron Center 3:26:11 9367
12906 Ron Stella 55 M Byron Center 3:26:29 9453
13569 Casey Peterson 29 F Westland 3:26:29 9454
11490 Aaron Velting 41 F Rockford 3:26:39 9504
12888 Kate Hodgson 29 F Plymouth 3:27:04 9624
6265 John Joyner 44 M Alto 3:27:20 9693
18462 Veronica Aguirre 36 F Oxford 3:27:35 9754
12911 Akiko Prince 45 F Wolverine Lake 3:27:35 9755
14375 Racheal Reed 36 F Port Huron 3:27:45 9800
10763 Gianluca Bacchiocch 50 M Saint Joseph 3:27:45 9801
14292 Lauryn Miceli 36 F Lake Orion 3:27:48 9815
15286 Meridith Anness 24 F Rochester Hills 3:27:49 9817
13540 Mark Randall 59 M Rochester Hills 3:27:57 9856
16540 Erin Pons 34 F Ann Arbor 3:28:06 9899
17711 Amy Lester 39 F Niles 3:28:14 9937
10672 Shan Cong 53 M Superior Township 3:28:21 9981
16643 Melinda Baker 37 F Ionia 3:28:26 10011
11246 Ed Maas 55 M Holland 3:28:45 10104
14560 Kayla Hughes 24 F Canton 3:28:47 10117
13237 Matthew Stone-Palmq 46 M Ypsilanti 3:29:11 10236
15224 Jessica Hadley 38 F Clarkston 3:29:28 10324
11622 Amanda Wolski 41 F Dearborn 3:29:31 10341
11054 Sarah Neumar 25 F Holland 3:29:37 10376
11044 Aubrey Meindertsma 22 F Caledonia 3:29:37 10378
19368 Katherine Moxley 42 F Ann Arbor 3:29:39 10387
14744 Jason Connell 52 M Manistee 3:29:39 10391
19922 Jenn Burkett 49 F Plymouth 3:29:42 10403
16720 Callie Smith 28 F Traverse City 3:29:56 10475
18267 Chundao Che 59 M Northville 3:30:06 10533
11508 Nic Montgomery 55 M Niles 3:30:43 10685
10905 Ann Paletko 32 F Ypsilanti 3:30:47 10698
8126 Scott Vanloo 48 M Mattawan 3:30:54 10722
13587 Juergen Viereck 54 M Oakland 3:31:10 10801
18538 Claire Margerison 43 F East Lansing 3:31:16 10827
16313 Rebecca Gorski 33 F Farmington Hills 3:31:21 10845
16177 Megan Roberts 37 F Charlotte 3:31:51 10966
13121 Cosmin Facaeanu 52 M Warren 3:32:14 11047
15541 Sarah Lindsay 30 F Rochester 3:32:21 11075
19714 Ken Roznowski 61 M Bay City 3:32:22 11078
14122 Michael Pezzetti 55 M Novi 3:32:24 11086
16765 Kimberly Stonehouse 39 F Oakland Twp 3:32:37 11141
2499 Nick Liversedge 38 M Ada 3:32:46 11182
13007 Derek Crawford 47 M Beverly Hills 3:32:52 11209
10081 Felicia Slate 30 F Williamston 3:33:03 11255
17208 Kim Kaleto 33 F Gladwin 3:33:11 11298
8503 Chuanbing Rong 47 M Canton 3:33:14 11307
6512 Joel Thompson 35 M Muskegon 3:33:25 11349
14617 Mitsuru Kitamura 50 M Novi 3:33:31 11376
26216 Nina Khaghany 19 F Orchard Lake 3:34:15 11581
14886 Jeff Moyer 52 M Ann Arbor 3:34:18 11599
14079 Chelsea Mestdagh 31 F Brighton 3:34:49 11747
17316 Tim Bourgeois 63 M Kalamazoo 3:35:12 11846
15673 Erica Scotford 35 F Eastpointe 3:35:20 11881
7723 Katie Millar 44 F Northville 3:35:30 11918
19197 Hong Weng 39 F South Lyon 3:35:30 11920
14790 Nina Benton 26 F Grand Blanc 3:35:30 11921
9669 Chris Biddle 40 M Ann Arbor 3:35:34 11934
17246 Janet Boltz 42 F Rochester Hills 3:35:35 11942
15033 Bernard Biermann 57 M Plymouth 3:35:36 11952
11484 Charlie Weiss 51 M East Lansing 3:35:46 11981
16195 Emily Kempa 30 F Northville 3:35:49 11998
18001 Tony Kmeid 59 M West Bloomfield 3:36:15 12080
16162 Leah Molloy 37 F Brighton 3:36:22 12121
11840 Mark Grevengoed 47 M Spring Lake 3:36:24 12126
15521 Julie Gascho 39 F Clarkston 3:36:29 12153
10707 Taylor Hosner 35 F Beverly Hills 3:36:38 12188
16141 Kanako Nirasawa 41 F Novi 3:36:48 12219
14902 Kaylee Fenton 29 F Traverse City 3:37:20 12338
14206 Jeff Foor 52 M Plymouth 3:37:21 12341
17844 Carly Schultz 38 F Traverse City 3:37:28 12367
13558 Colleen Stone 43 F Ann Arbor 3:37:38 12417
9178 Thomas Heinlein 54 M Whitmore Lake 3:37:42 12434
19319 Lisa Golek 43 F Royal Oak 3:37:42 12438
16420 Brittany Jackson 34 F Birmingham 3:37:48 12467
15329 Elaine Johnson 28 F Pinckney 3:37:53 12489
16876 Meghan Russo 34 F Jenison 3:38:06 12545
14793 Abby Mcintyre 33 F Grand Rapids 3:38:08 12552
15433 Brienne Peers 27 F Auburn Hills 3:38:26 12633
11978 Valerie Duhn 43 F Kalamazoo 3:38:29 12649
19330 Crystal Kelm 43 F Portage 3:38:42 12703
13164 William Clark 53 M Rochester Hills 3:38:49 12731
15467 Elyse Heid 29 F Detroit 3:38:51 12740
18498 Karen Perry 41 F Fenton 3:38:51 12742
18197 Jill Kirshman 36 F Richland 3:38:53 12747
8270 Stan Sochay 46 M Potterville 3:38:55 12758
12598 Alyson Rembowicz 37 F Kalamazoo 3:38:59 12772
12478 Abby Kleinheksel 39 F Grandville 3:39:11 12814
16758 Julie Hammond 40 F Hartland 3:39:20 12855
20932 Carrie Lewis 45 F Elkton 3:39:26 12894
18097 Christina Schardt 40 F Davison 3:39:34 12933
19236 Brian Rice 56 M Grand Rapids 3:39:53 13012
20603 James O'Connor 62 M Grand Rapids 3:40:00 13047
920 John Verhagen 24 M Madison Heights 3:40:08 13072
10302 Heather Abramouski 35 F Royal Oak 3:40:08 13074
14040 Sydney Walsh 33 F Royal Oak 3:40:22 13133
13898 Craig Malmstrom 56 M Dewitt 3:40:23 13136
9251 Zachary Kellogg 41 M Caledonia 3:40:26 13145
19320 Melissa Christensen 44 F New Hudson 3:40:42 13218
20650 Raffaella Medoro-Na 47 F Northville 3:41:02 13289
20604 Rose Cory 46 F Ann Arbor 3:41:10 13317
16887 Siguang Xu 60 M Rochester Hills 3:41:21 13357
15222 Megan Warzecha 38 F Detroit 3:41:45 13460
18443 Daniel House 56 M Waterford 3:41:53 13487
20546 Tendai Thomas 47 F Farmington Hills 3:42:14 13573
10615 Jennifer Cathey 43 F Ada 3:42:25 13606
18744 Tamara Fecker 42 F Dexter 3:42:30 13634
18848 Sara Bahu 44 F Bloomfield Hills 3:42:33 13651
14427 Rebecca Yurgens 27 F Saint Charles 3:42:35 13656
3363 Alexander Miros 28 M Ypsilanti 3:42:36 13658
16664 Nichole Mackey 26 F Canton 3:42:39 13670
22122 Howard Van Mersberg 63 M Zeeland 3:42:42 13681
18075 Rachel Warby 38 F Fenton 3:42:51 13713
16355 Hebah Hefzy 39 F Birmingham 3:42:57 13741
10232 Doug Miles 49 M Grand Blanc 3:42:59 13761
22357 Danie Matusik 50 F Chelsea 3:43:04 13781
11306 Scott Kennell 45 M Westland 3:43:12 13813
7730 William Pritchett 59 M Midland 3:44:17 14080
12328 Qichao Zheng 50 M Rochester Hills 3:44:23 14106
17066 Jamie Gladstone 57 M Bloomfield Hills 3:44:31 14144
17210 Emily Chepkor 30 F Detroit 3:44:34 14161
12394 Angela Carron 44 F Milan 3:45:10 14313
18731 Joseph Turrini 57 M Grosse Pointe Woods 3:45:19 14348
18575 Nicole Cholette 36 F St Clair Shores 3:45:38 14436
17493 Rachel Schoepke 23 F Marshall 3:45:39 14445
13142 Thomas Ryan 56 M Ann Arbor 3:45:44 14471
20565 Christine Stead 50 F Ann Arbor 3:45:52 14506
18466 Daneille Fowler 43 F Kenockee 3:45:53 14513
21046 Melissa Peura 48 F Farmington 3:45:56 14525
21989 Mengdan Chu 55 F Ann Arbor 3:45:59 14537
20706 Keith Reed 60 M Vicksburg 3:46:00 14542
20693 John Brady 63 M Mattawan 3:46:30 14662
19626 Elizabeth D Molina 44 F Saline 3:47:02 14794
19883 Amy Mcnabb 41 F St. Clair 3:47:08 14820
14214 Mike Cooper 51 M West Bloomfield 3:47:16 14846
17222 Manfred Mueller 65 M Franklin 3:47:29 14906
16340 Petagaye English 37 F Southfield 3:47:44 14962
22942 Tamara Shuler 61 F Constantine 3:47:47 14974
5690 William Dixon 32 M East Lansing 3:47:48 14977
19573 Jennifer Young 41 F Kalamazoo 3:48:47 15201
21271 Rachel Baggech 48 F Holland 3:49:18 15316
6478 Michael Nitz 38 M Chicago 3:49:24 15346
14055 Jamie Ferris 24 F Ann Arbor 3:49:39 15404
20474 Reem Taha 46 F Dearborn 3:49:42 15410
22567 Daniel Oumedian 66 M Jenison 3:49:53 15452
17051 Philip Pairitz 58 M Canton 3:49:55 15455
16529 Janine Lewandoski 29 F Battle Creek 3:49:55 15458
12406 Jason Nolff 47 M Dundee 3:50:01 15475
21261 Linda Humpert 50 F Reese 3:50:26 15562
13122 Matt Mcphillips 51 M Smiths Creek 3:50:40 15606
18671 Lisa Vandusen 39 F Bay City 3:51:01 15664
16738 Mike Rottman 55 M Williamsburg 3:51:02 15670
11109 Eric Vanderkooi 50 M Holland 3:51:35 15775
11151 Edward (skip) Schot 54 M Holland 3:51:35 15777
7148 Stephen Liegghio 52 M Mount Clemens 3:51:51 15838
17626 Morgan Mccririe-Bal 30 F Holland 3:51:55 15853
16406 Gina Apone 29 F Washington 3:52:43 16033
13731 Karl Schmitz 53 M Jenison 3:52:45 16042
20436 Fu-Shin Yu 63 M Troy 3:52:47 16045
13015 Steven Oberle 49 M Ottawa Lake 3:53:02 16093
17489 Kristin Tuominen 40 F Negaunee 3:53:24 16168
21054 Graham Astley 69 M Brighton 3:53:26 16176
11192 Kayhan Gultekin 45 M Ann Arbor 3:53:56 16268
19510 Thomas Claflin 74 M Brighton 3:53:56 16269
7752 Sarah Summerhill 44 F East Lansing 3:54:10 16321
22384 Katie Lane 53 F Grand Rapids 3:54:23 16376
21551 Hongzhi Miao 55 F Ann Arbor 3:54:31 16399
21396 Bill Robertson 60 M Ann Arbor 3:54:52 16472
13375 Daniel Chomet 51 M Berkley 3:54:54 16482
20774 Peter Campbell 61 M Lansing 3:54:58 16495
19958 Betzy Rodriguez 46 F Macomb 3:55:17 16555
22092 Gary Milligan 68 M Grand Rapids 3:55:23 16572
11920 Mike Woodworth 58 M Grand Rapids 3:55:27 16582
9221 Justin Kocher 41 M Portage 3:55:44 16631
17332 Kenneth Smith 58 M Beverly Hills 3:55:47 16641
14431 Liwen Li 55 M Troy 3:55:51 16647
15639 Ali Fitzpatrick 32 F Rochester 3:56:25 16741
12950 Craig Fitzpatrick 52 M Rochester 3:56:25 16743
15796 Kevin Kaspzyk 51 M Rochester 3:56:28 16754
21669 Megan Daly 47 F Commerce 3:56:38 16795
20941 Paul Higgins 61 M East China 3:56:42 16805
16847 Mary Hunter 36 F Plainfield Charter Towns 3:56:43 16808
22614 Gail Shurlow 54 F Lakeview 3:56:49 16829
20459 Sam Lampe 62 M Grand Rapids 3:57:02 16873
22179 Chen Hong 54 F Troy 3:57:09 16893
20538 James Ferency 70 M Oak Park 3:57:12 16898
21759 Anna Stanbaugh 52 F Bloomfield Hills 3:57:37 16983
17050 Thomas Thompson 59 M Beverly Hills 3:57:45 17010
19423 Jacqueline Cheetam 44 F Howell 3:57:49 17021
25577 Caroline Kistner 33 F Ann Arbor 3:57:56 17041
21617 Rachael Ayotte 45 F Farmington Hills 3:58:03 17056
21889 Melanie Viereck 50 F Oakland Township 3:58:47 17180
14913 Eduardo Matsuo 69 M Ann Arbor 3:58:47 17183
20890 Laurie Bonasso 49 F Grosse Pointe Woods 3:58:54 17205
11879 David Wong 53 M Farmington Hills 3:59:06 17249
21917 Helen Harding 52 F Ann Arbor 3:59:16 17280
20979 Tina Turner 51 F Clinton Township 3:59:18 17285
20614 Patricia Raines 51 F Wolverine Lake 3:59:22 17291
18648 Tony Bruce 59 M Leonard 3:59:29 17314
18547 Jacqueline Hamilton 35 F Southfield 3:59:36 17332
17323 Rebecca Gast 30 F Birmingham 3:59:44 17349
18529 Francis Szostak 56 M Saginaw 4:00:02 17402
22495 Angela Rossi 55 F Marine City 4:00:41 17507
17726 Paul Soper 58 M Sparta 4:01:35 17636
15528 Elizabeth Hill 26 F Grand Rapids 4:01:35 17637
22743 Joseph Sasiela 65 M Essexville 4:01:46 17658
20855 Pellayia Roustemis 47 F Grosse Pointe Woods 4:02:52 17799
18715 Mary Kooyer 45 F Jenison 4:03:48 17933
10888 Chris Keyes 51 M Livonia 4:04:38 18058
21894 Christopher Harris 62 M Wyandotte 4:04:47 18083
20059 Maureen Pluger 59 F Hudsonville 4:05:12 18143
21430 John Toon 63 M Rockwood 4:05:12 18144
20829 Jennifer Shelbourne 52 F Davisburg 4:05:21 18170
23224 Susan Milligan 64 F Grand Rapids 4:05:22 18173
20886 Michael Mccormack 65 M Canton 4:05:28 18189
21043 Stacey Tremp 48 F Fort Gratiot 4:05:31 18199
13883 Matthew Purcell 54 M Grand Blanc 4:05:47 18235
19008 Jennifer Gervais 39 F Grand Haven 4:05:48 18238
23435 Kathryn Murphy 61 F Plymouth 4:06:07 18272
19746 Carolyn Wilson 42 F Saint Clair Shores 4:06:21 18305
24712 Courtney Abernathy 41 F Grand Rapids 4:06:53 18380
22474 Karen Nelson 57 F Gwinn 4:06:53 18381
20182 Alaina Kronenberg 47 F West Bloomfield 4:06:54 18386
24710 Marc Abernathy 57 M Grand Rapids 4:06:55 18387
20503 Dan Fojtik 62 M Grand Haven 4:06:56 18390
21961 Peter Wertanen 69 M Negaunee 4:06:58 18395
13082 Kurt Loar 45 M Blissfield 4:07:00 18398
10019 Brent Mckellar 45 M Okemos 4:07:41 18482
22798 Sandra Petrovskis 62 F Grand Rapids 4:08:23 18583
21636 Amy Mclain 48 F Clarkston 4:08:31 18599
22867 Linnae Satterlee 61 F Grand Rapids 4:09:02 18669
19194 Mark Smith 66 M Grand Rapids 4:09:31 18728
18401 Deborah Lazaroff 66 F Jackson 4:09:39 18744
18290 Robert Cook 60 M Lansing 4:10:15 18831
22187 Mark Morad 63 M Livonia 4:10:19 18836
21264 Anita Harless 48 F Holly 4:10:20 18842
20058 Lacey Randall 44 F Holly 4:10:21 18843
22817 Julieen Sweet 55 F Brooklyn 4:11:30 18998
19517 Molly Mayernik 45 F Washington Township 4:12:07 19083
21536 Michael Webster 62 M Northville 4:12:07 19085
21775 Scott Schubert 61 M Rapid City 4:12:18 19104
16563 Amanda Jackson 37 F Cedar 4:12:18 19105
16109 Kristi Crago 46 F Grosse Pointe Park 4:12:30 19123
23154 William Baltz 66 M Jones 4:12:47 19162
19372 Khati Brazee 44 F Lansing 4:12:48 19163
22360 Rebecca Bravata 50 F Caledonia 4:13:30 19243
21115 Jill Stockford 50 F Clinton 4:14:37 19385
21195 Kimberly Dimock 45 F Harbor Beach 4:14:59 19432
23648 Terese Grondin 68 F Fenton 4:15:10 19459
22748 Michael Zaroukian 67 M Okemos 4:15:12 19465
15754 Darryl Stanbrough 70 M Oak Park 4:15:53 19533
23275 Colleen Hoffman 56 F Canton 4:16:39 19616
26361 Christopher Morgan 40 M Grosse Pointe Shores 4:16:40 19617
20255 Julie Grevengoed 46 F Spring Lake 4:17:00 19642
23283 Mizue Wagner 56 F Okemos 4:17:36 19698
22865 Anne Niemiec 59 F Zeeland 4:18:00 19759
26574 Rebecca Skoczylas 41 F Southfield 4:19:19 19899
19881 Heather Boersma 54 F Kalamazoo 4:19:37 19940
12420 David Grigg 51 M St. Clair Shores 4:19:55 19968
19863 Amy Anderson 47 F Edwardsburg 4:20:55 20092
17125 Jennifer Jordan-Mur 51 F Walled Lake 4:21:49 20181
15198 Jerry Canze 57 M Midland 4:21:55 20195
23431 Kay Weidman-Kernick 66 F Clarkston 4:22:39 20266
23565 Kenneth Monash 71 M Saline 4:23:04 20312
17315 Gene Cronin 60 M Grand Rapids 4:24:36 20447
21633 Al Johnson 61 M Plymouth 4:25:31 20542
22127 Thomas Hitchman 61 M Bloomfield Hills 4:25:57 20591
15783 David Dwornick 64 M Brownstown 4:26:28 20636
22650 Aaron Pratt 68 M Saline 4:28:48 20852
19333 Tracey Nauta 43 F Grand Haven 4:29:23 20900
19479 Brandy Shumaker 43 F East Lansing 4:29:42 20924
17442 Anna Zang 36 F Lansing 4:29:42 20925
8223 Rick Ganzi 58 M Holland 4:30:06 20963
22916 Leslie Miller 55 F Washington 4:30:50 21018
22200 Jennifer Ayers 50 F Bay City 4:31:33 21061
21967 Holly Parker 47 F Ann Arbor 4:33:01 21183
22818 Kathleen Waters 56 F East Grand Rapids 4:33:27 21227
25589 John Klees 59 M Grand Rapids 4:33:48 21267
23231 Victor Barkoski 73 M Northville 4:35:42 21434
13232 Kieren Vonkronenber 26 F Ypsilanti 4:35:46 21446
23122 Sue Weiss 65 F Petoskey 4:36:39 21509
15717 Heather Graves 50 F Saline 4:38:17 21653
19352 Marlene Wenta 45 F Spring Lake 4:38:49 21693
10980 Michael Fisher 51 M Commerce 4:39:43 21762
19921 Michael Parker 61 M Clarkston 4:40:03 21791
23611 Myrna Carll 64 F Northville Twp 4:40:24 21818
23799 Carol Neckel 65 F Holland 4:43:57 22068
26545 David Ingber 48 M Commerce Township 4:45:08 22132
23274 Brenda Penland 56 F Grand Haven 4:47:37 22312
24535 Frank Feraco 58 M Battle Creek 4:47:47 22323
15499 Amanda Maly 35 F Traverse City 4:50:36 22495
24921 David Smith 61 M Detroit 4:53:15 22655
20866 David Smith 64 M Flushing 4:54:56 22760
28473 Olivia Carter 45 F Potterville 5:01:37 23070
20220 John Krauss 61 M Ann Arbor 5:02:22 23099
23843 Mary Byrd 67 F Plymouth 5:03:10 23147
7612 Adam Quinn 24 M Belmont 5:03:49 23170
23462 Bill Sved 73 M Marquette 5:05:11 23226
25202 Amy Mikhail 54 F Ann Arbor 5:07:02 23322
27857 Marilyn Winningham 65 F Detroit 5:08:50 23402
20747 James Scholl 68 M Hometown 5:09:17 23424
24018 Brian Dowgiallo 39 M West Bloomfield 5:11:36 23511
19621 Timothy Ward 62 M Fort Gratiot 5:15:23 23647
21530 William Strimpel 63 M Monroe 5:20:33 23827
25063 Julie Laforge 58 F Utica 5:28:27 24059
28879 Kerreen Conley 55 F Belleville 5:36:22 24239
26370 Patrick Sawhill 41 M Traverse City 5:43:38 24366
15818 Mark Bauman 72 M Flushing 5:44:40 24384
23667 Philip Czech 72 M Roscommon 5:50:11 24506
23173 Jeffrey Kendall 65 M Southfield 5:52:59 24552
28854 Portia Boldin 56 F West Bloomfield 5:55:49 24593